This demonstration page uses our WeatherBlox Daily Observations layout. Learn more.

36.17497, -115.13722

Hourly Observations for January 28, 2020

Temp ( °F °C ) Dew Point ( °F °C ) Humidity (%) Winds ( mph kmh ) Pressure ( in mb ) Visibility ( mi km ) Precip ( " mm )
12:53 am 00:53 Clear 50 10 24 -4.4 36 36 WNW 3 6 30.27 1025 10 16.0934 0 0
1:53 am 01:53 Clear 48 8.9 24 -4.4 39 39 Calm 30.29 1026 10 16.0934 0 0
2:53 am 02:53 Clear 49 9.4 24 -4.4 38 38 Calm 30.27 1025 10 16.0934 0 0
3:53 am 03:53 Clear 45 7.2 24 -4.4 44 44 WNW 5 7 30.27 1025 10 16.0934 0 0
4:53 am 04:53 Clear 44 6.7 25 -3.9 47 47 WNW 9 15 30.26 1025 10 16.0934 0 0
5:53 am 05:53 Clear 45 7.2 25 -3.9 46 46 E 3 6 30.26 1025 10 16.0934 0 0
6:53 am 06:53 Sunny 45 7.2 25 -3.9 46 46 WNW 3 6 30.28 1025 10 16.0934 0 0
7:53 am 07:53 Sunny 48 8.9 26 -3.3 42 42 Calm 30.29 1026 10 16.0934 0 0
8:53 am 08:53 Sunny 53 11.7 26 -3.3 35 35 NNW 3 6 30.29 1026 10 16.0934 0 0
9:53 am 09:53 Sunny 58 14.4 26 -3.3 29 29 Calm 30.28 1026 10 16.0934 0 0
10:53 am 10:53 Sunny 59 15 26 -3.3 28 28 SE 5 7 30.26 1025 10 16.0934 0 0
11:53 am 11:53 Sunny 60 15.6 26 -3.3 27 27 VRB 3 6 30.23 1024 10 16.0934 0 0
12:53 pm 12:53 Sunny 61 16.1 25 -3.9 25 25 E 3 6 30.19 1022 10 16.0934 0 0
1:53 pm 13:53 Sunny 61 16.1 25 -3.9 25 25 Calm 30.15 1021 10 16.0934 0 0
2:53 pm 14:53 Sunny 62 16.7 25 -3.9 24 24 SE 7 11 30.12 1020 10 16.0934 0 0
3:53 pm 15:53 Sunny 62 16.7 26 -3.3 25 25 E 6 9 30.11 1020 10 16.0934 0 0
4:53 pm 16:53 Sunny 61 16.1 26 -3.3 26 26 NE 6 9 30.1 1019 10 16.0934 0 0
5:53 pm 17:53 Clear 57 13.9 26 -3.3 30 30 ENE 6 9 30.11 1020 10 16.0934 0 0
6:53 pm 18:53 Clear 57 13.9 27 -2.8 32 32 WNW 6 9 30.11 1020 10 16.0934 0 0
7:53 pm 19:53 Clear 56 13.3 27 -2.8 33 33 SW 3 6 30.1 1019 10 16.0934 0 0
8:53 pm 20:53 Clear 51 10.6 28 -2.2 41 41 W 6 9 30.1 1019 10 16.0934 0 0
9:53 pm 21:53 Clear 49 9.4 28 -2.2 44 44 WNW 7 11 30.09 1019 10 16.0934 0 0
10:53 pm 22:53 Clear 48 8.9 27 -2.8 44 44 NW 6 9 30.09 1019 10 16.0934 0 0
11:53 pm 23:53 Clear 48 8.9 26 -3.3 42 42 Calm 30.08 1019 10 16.0934 0 0

Powered by AerisWeather